Time,TemperatureF,DewpointF,PressureIn,WindDirection,WindDirectionDegrees,WindSpeedMPH,WindSpeedGustMPH,Humidity,HourlyPrecipIn,Conditions,Clouds,dailyrainin,SoftwareType,DateUTC
2013-02-09 00:04:00,44.7,24.0,29.25,West,270,3.0,-999.0,42,0.00,,,0.00,Rainwise IP-100,2013-02-09 08:04:00,
2013-02-09 00:09:00,44.6,23.0,29.25,WNW,292,2.8,-999.0,41,0.00,,,0.00,Rainwise IP-100,2013-02-09 08:09:00,
2013-02-09 00:14:00,44.8,23.0,29.25,WNW,292,0.0,-999.0,41,0.00,,,0.00,Rainwise IP-100,2013-02-09 08:14:00,
2013-02-09 00:19:00,44.9,23.0,29.25,WNW,292,1.4,-999.0,41,0.00,,,0.00,Rainwise IP-100,2013-02-09 08:19:00,
2013-02-09 00:24:00,44.8,24.0,29.25,West,270,6.5,-999.0,42,0.00,,,0.00,Rainwise IP-100,2013-02-09 08:24:00,
2013-02-09 00:29:00,44.7,23.0,29.25,WNW,292,2.8,-999.0,41,0.00,,,0.00,Rainwise IP-100,2013-02-09 08:29:00,
2013-02-09 00:34:00,44.9,23.0,29.25,NNE,22,0.0,-999.0,41,0.00,,,0.00,Rainwise IP-100,2013-02-09 08:34:00,
2013-02-09 00:39:00,44.9,23.0,29.24,WNW,292,4.4,-999.0,41,0.00,,,0.00,Rainwise IP-100,2013-02-09 08:39:00,
2013-02-09 00:44:00,44.7,23.0,29.24,WNW,292,1.6,-999.0,41,0.00,,,0.00,Rainwise IP-100,2013-02-09 08:44:00,
2013-02-09 00:49:00,44.7,23.0,29.25,WNW,292,1.9,-999.0,41,0.00,,,0.00,Rainwise IP-100,2013-02-09 08:49:00,
2013-02-09 00:54:00,45.0,23.0,29.24,SSE,157,0.0,-999.0,41,0.00,,,0.00,Rainwise IP-100,2013-02-09 08:54:00,
2013-02-09 00:59:00,45.2,23.0,29.24,WSW,247,7.2,-999.0,40,0.00,,,0.00,Rainwise IP-100,2013-02-09 08:59:00,
2013-02-09 01:04:00,45.6,23.0,29.24,NNE,22,2.3,-999.0,40,0.00,,,0.00,Rainwise IP-100,2013-02-09 09:04:00,
2013-02-09 01:09:00,45.9,23.0,29.24,NW,315,1.6,-999.0,39,0.00,,,0.00,Rainwise IP-100,2013-02-09 09:09:00,
2013-02-09 01:14:00,46.1,23.0,29.25,NNW,337,2.8,-999.0,39,0.00,,,0.00,Rainwise IP-100,2013-02-09 09:14:00,
2013-02-09 01:19:00,46.3,23.0,29.24,North,360,3.0,-999.0,38,0.00,,,0.00,Rainwise IP-100,2013-02-09 09:19:00,
2013-02-09 01:24:00,46.3,23.0,29.24,NNW,337,4.9,-999.0,38,0.00,,,0.00,Rainwise IP-100,2013-02-09 09:24:00,
2013-02-09 01:29:00,46.0,23.0,29.24,NNW,337,3.3,-999.0,38,0.00,,,0.00,Rainwise IP-100,2013-02-09 09:29:00,
2013-02-09 01:34:00,45.8,23.0,29.24,SSW,202,1.2,-999.0,39,0.00,,,0.00,Rainwise IP-100,2013-02-09 09:34:00,
2013-02-09 01:39:00,45.6,23.0,29.24,WSW,247,3.3,-999.0,39,0.00,,,0.00,Rainwise IP-100,2013-02-09 09:39:00,
2013-02-09 01:44:00,45.4,23.0,29.24,NNE,22,0.0,-999.0,39,0.00,,,0.00,Rainwise IP-100,2013-02-09 09:44:00,
2013-02-09 01:49:00,45.2,23.0,29.24,WNW,292,0.0,-999.0,40,0.00,,,0.00,Rainwise IP-100,2013-02-09 09:49:00,
2013-02-09 01:55:00,45.0,23.0,29.24,NW,315,0.0,-999.0,40,0.00,,,0.00,Rainwise IP-100,2013-02-09 09:55:00,
2013-02-09 02:00:00,44.9,23.0,29.25,West,270,1.4,-999.0,40,0.00,,,0.00,Rainwise IP-100,2013-02-09 10:00:00,
2013-02-09 02:05:00,44.8,23.0,29.25,NNE,22,2.6,-999.0,40,0.00,,,0.00,Rainwise IP-100,2013-02-09 10:05:00,
2013-02-09 02:10:00,44.9,23.0,29.25,NNW,337,1.2,-999.0,40,0.00,,,0.00,Rainwise IP-100,2013-02-09 10:10:00,
2013-02-09 02:15:00,45.0,23.0,29.25,North,360,0.0,-999.0,40,0.00,,,0.00,Rainwise IP-100,2013-02-09 10:15:00,
2013-02-09 02:20:00,44.9,23.0,29.24,NE,45,0.0,-999.0,40,0.00,,,0.00,Rainwise IP-100,2013-02-09 10:20:00,
2013-02-09 02:25:00,45.0,23.0,29.25,NNW,337,2.3,-999.0,40,0.00,,,0.00,Rainwise IP-100,2013-02-09 10:25:00,
2013-02-09 02:30:00,44.8,23.0,29.25,West,270,1.4,-999.0,40,0.00,,,0.00,Rainwise IP-100,2013-02-09 10:30:00,
2013-02-09 02:35:00,44.6,23.0,29.25,NNW,337,0.0,-999.0,40,0.00,,,0.00,Rainwise IP-100,2013-02-09 10:35:00,
2013-02-09 02:40:00,44.8,23.0,29.25,WNW,292,2.6,-999.0,40,0.00,,,0.00,Rainwise IP-100,2013-02-09 10:40:00,
2013-02-09 02:45:00,44.9,23.0,29.25,NNE,22,0.0,-999.0,39,0.00,,,0.00,Rainwise IP-100,2013-02-09 10:45:00,
2013-02-09 02:50:00,44.7,23.0,29.25,WSW,247,2.8,-999.0,39,0.00,,,0.00,Rainwise IP-100,2013-02-09 10:50:00,
2013-02-09 02:55:00,44.5,23.0,29.25,WNW,292,0.0,-999.0,40,0.00,,,0.00,Rainwise IP-100,2013-02-09 10:55:00,
2013-02-09 03:00:00,44.7,23.0,29.25,North,360,2.1,-999.0,39,0.00,,,0.00,Rainwise IP-100,2013-02-09 11:00:00,
2013-02-09 03:05:00,44.8,23.0,29.25,NE,45,0.0,-999.0,39,0.00,,,0.00,Rainwise IP-100,2013-02-09 11:05:00,
2013-02-09 03:10:00,44.6,23.0,29.25,North,360,3.7,-999.0,40,0.00,,,0.00,Rainwise IP-100,2013-02-09 11:10:00,
2013-02-09 03:15:00,44.6,23.0,29.24,North,360,4.2,-999.0,39,0.00,,,0.00,Rainwise IP-100,2013-02-09 11:15:00,
2013-02-09 03:20:00,44.8,23.0,29.25,North,360,1.2,-999.0,39,0.00,,,0.00,Rainwise IP-100,2013-02-09 11:20:00,
2013-02-09 03:25:00,44.8,23.0,29.25,NW,315,1.4,-999.0,39,0.00,,,0.00,Rainwise IP-100,2013-02-09 11:25:00,
2013-02-09 03:30:00,44.5,23.0,29.25,NNW,337,1.6,-999.0,39,0.00,,,0.00,Rainwise IP-100,2013-02-09 11:30:00,
2013-02-09 03:35:00,44.4,21.0,29.25,NNE,22,1.6,-999.0,39,0.00,,,0.00,Rainwise IP-100,2013-02-09 11:35:00,
2013-02-09 03:40:00,44.2,21.0,29.25,North,360,0.0,-999.0,39,0.00,,,0.00,Rainwise IP-100,2013-02-09 11:40:00,
2013-02-09 03:45:00,43.7,23.0,29.25,NNE,22,0.0,-999.0,40,0.00,,,0.00,Rainwise IP-100,2013-02-09 11:45:00,
2013-02-09 03:50:00,43.2,21.0,29.25,NNE,22,0.0,-999.0,41,0.00,,,0.00,Rainwise IP-100,2013-02-09 11:50:00,
2013-02-09 03:55:00,43.0,21.0,29.25,North,360,0.0,-999.0,41,0.00,,,0.00,Rainwise IP-100,2013-02-09 11:55:00,
2013-02-09 04:00:00,43.0,23.0,29.25,NNE,22,2.8,-999.0,42,0.00,,,0.00,Rainwise IP-100,2013-02-09 12:00:00,
2013-02-09 04:05:00,43.2,23.0,29.24,WSW,247,2.3,-999.0,42,0.00,,,0.00,Rainwise IP-100,2013-02-09 12:05:00,
2013-02-09 04:10:00,43.3,21.0,29.25,North,360,0.0,-999.0,41,0.00,,,0.00,Rainwise IP-100,2013-02-09 12:10:00,
2013-02-09 04:15:00,43.3,21.0,29.24,WSW,247,0.0,-999.0,41,0.00,,,0.00,Rainwise IP-100,2013-02-09 12:15:00,
2013-02-09 04:20:00,43.1,23.0,29.25,WNW,292,1.4,-999.0,42,0.00,,,0.00,Rainwise IP-100,2013-02-09 12:20:00,
2013-02-09 04:25:00,42.6,23.0,29.25,NNE,22,1.4,-999.0,43,0.00,,,0.00,Rainwise IP-100,2013-02-09 12:25:00,
2013-02-09 04:30:00,42.1,23.0,29.25,NNW,337,1.9,-999.0,44,0.00,,,0.00,Rainwise IP-100,2013-02-09 12:30:00,
2013-02-09 04:35:00,41.8,23.0,29.25,North,360,0.0,-999.0,44,0.00,,,0.00,Rainwise IP-100,2013-02-09 12:35:00,
2013-02-09 04:40:00,41.6,23.0,29.25,NNE,22,0.0,-999.0,45,0.00,,,0.00,Rainwise IP-100,2013-02-09 12:40:00,
2013-02-09 04:45:00,41.3,23.0,29.25,NNW,337,2.3,-999.0,45,0.00,,,0.00,Rainwise IP-100,2013-02-09 12:45:00,
2013-02-09 04:50:00,41.2,23.0,29.25,North,360,0.0,-999.0,46,0.00,,,0.00,Rainwise IP-100,2013-02-09 12:50:00,
2013-02-09 04:55:00,41.3,23.0,29.25,NE,45,3.7,-999.0,46,0.00,,,0.00,Rainwise IP-100,2013-02-09 12:55:00,
2013-02-09 05:00:00,41.3,23.0,29.25,NNE,22,0.0,-999.0,46,0.00,,,0.00,Rainwise IP-100,2013-02-09 13:00:00,
2013-02-09 05:05:00,41.2,23.0,29.25,NNE,22,1.2,-999.0,45,0.00,,,0.00,Rainwise IP-100,2013-02-09 13:05:00,
2013-02-09 05:10:00,41.0,23.0,29.25,NNW,337,1.6,-999.0,45,0.00,,,0.00,Rainwise IP-100,2013-02-09 13:10:00,
2013-02-09 05:15:00,40.9,23.0,29.25,NNW,337,0.0,-999.0,46,0.00,,,0.00,Rainwise IP-100,2013-02-09 13:15:00,
2013-02-09 05:20:00,40.4,23.0,29.25,NNW,337,3.0,-999.0,47,0.00,,,0.00,Rainwise IP-100,2013-02-09 13:20:00,
2013-02-09 05:25:00,40.0,23.0,29.25,NNW,337,0.0,-999.0,48,0.00,,,0.00,Rainwise IP-100,2013-02-09 13:25:00,
2013-02-09 05:30:00,39.5,24.0,29.25,WNW,292,0.0,-999.0,50,0.00,,,0.00,Rainwise IP-100,2013-02-09 13:30:00,
2013-02-09 05:35:00,38.6,23.0,29.25,WNW,292,2.3,-999.0,52,0.00,,,0.00,Rainwise IP-100,2013-02-09 13:35:00,
2013-02-09 05:40:00,37.6,24.0,29.25,WNW,292,2.6,-999.0,55,0.00,,,0.00,Rainwise IP-100,2013-02-09 13:40:00,
2013-02-09 05:45:00,36.7,24.0,29.25,WNW,292,1.4,-999.0,57,0.00,,,0.00,Rainwise IP-100,2013-02-09 13:45:00,
2013-02-09 05:50:00,36.6,24.0,29.25,West,270,2.8,-999.0,59,0.00,,,0.00,Rainwise IP-100,2013-02-09 13:50:00,
2013-02-09 05:55:00,36.7,24.0,29.25,WSW,247,1.4,-999.0,59,0.00,,,0.00,Rainwise IP-100,2013-02-09 13:55:00,
2013-02-09 06:00:00,36.9,24.0,29.25,WSW,247,0.0,-999.0,57,0.00,,,0.00,Rainwise IP-100,2013-02-09 14:00:00,
2013-02-09 06:05:00,37.0,24.0,29.25,WSW,247,1.9,-999.0,58,0.00,,,0.00,Rainwise IP-100,2013-02-09 14:05:00,
2013-02-09 06:10:00,36.2,24.0,29.25,WSW,247,0.0,-999.0,60,0.00,,,0.00,Rainwise IP-100,2013-02-09 14:10:00,
2013-02-09 06:15:00,35.4,23.0,29.25,WSW,247,0.0,-999.0,61,0.00,,,0.00,Rainwise IP-100,2013-02-09 14:15:00,
2013-02-09 06:20:00,34.5,24.0,29.25,WSW,247,1.9,-999.0,63,0.00,,,0.00,Rainwise IP-100,2013-02-09 14:20:00,
2013-02-09 06:25:00,33.9,24.0,29.25,WNW,292,1.6,-999.0,66,0.00,,,0.00,Rainwise IP-100,2013-02-09 14:25:00,
2013-02-09 06:30:00,33.7,26.0,29.25,WNW,292,1.2,-999.0,68,0.00,,,0.00,Rainwise IP-100,2013-02-09 14:30:00,
2013-02-09 06:35:00,33.7,26.0,29.25,WNW,292,0.0,-999.0,68,0.00,,,0.00,Rainwise IP-100,2013-02-09 14:35:00,
2013-02-09 06:40:00,33.5,26.0,29.25,WSW,247,0.0,-999.0,68,0.00,,,0.00,Rainwise IP-100,2013-02-09 14:40:00,
2013-02-09 06:45:00,32.9,24.0,29.25,WSW,247,0.0,-999.0,68,0.00,,,0.00,Rainwise IP-100,2013-02-09 14:45:00,
2013-02-09 06:50:00,32.7,24.0,29.25,WSW,247,0.0,-999.0,69,0.00,,,0.00,Rainwise IP-100,2013-02-09 14:50:00,
2013-02-09 06:55:00,32.6,24.0,29.26,WSW,247,0.0,-999.0,70,0.00,,,0.00,Rainwise IP-100,2013-02-09 14:55:00,
2013-02-09 07:00:00,32.2,24.0,29.26,WSW,247,0.0,-999.0,71,0.00,,,0.00,Rainwise IP-100,2013-02-09 15:00:00,
2013-02-09 07:05:00,32.0,24.0,29.26,WSW,247,0.0,-999.0,72,0.00,,,0.00,Rainwise IP-100,2013-02-09 15:05:00,
2013-02-09 07:10:00,32.0,24.0,29.26,WSW,247,2.6,-999.0,72,0.00,,,0.00,Rainwise IP-100,2013-02-09 15:10:00,
2013-02-09 07:15:00,32.0,24.0,29.26,WSW,247,0.0,-999.0,73,0.00,,,0.00,Rainwise IP-100,2013-02-09 15:15:00,
2013-02-09 07:20:00,31.9,24.0,29.27,WSW,247,3.0,-999.0,73,0.00,,,0.00,Rainwise IP-100,2013-02-09 15:20:00,
2013-02-09 07:25:00,31.8,26.0,29.27,WSW,247,0.0,-999.0,75,0.00,,,0.00,Rainwise IP-100,2013-02-09 15:25:00,
2013-02-09 07:30:00,32.1,26.0,29.27,WSW,247,0.0,-999.0,75,0.00,,,0.00,Rainwise IP-100,2013-02-09 15:30:00,
2013-02-09 07:35:00,32.3,26.0,29.27,WSW,247,0.0,-999.0,75,0.00,,,0.00,Rainwise IP-100,2013-02-09 15:35:00,
2013-02-09 07:40:00,32.7,26.0,29.27,NNE,22,0.0,-999.0,74,0.00,,,0.00,Rainwise IP-100,2013-02-09 15:40:00,
2013-02-09 07:45:00,33.3,26.0,29.27,NNW,337,0.0,-999.0,74,0.00,,,0.00,Rainwise IP-100,2013-02-09 15:45:00,
2013-02-09 07:50:00,33.5,28.0,29.27,WSW,247,1.2,-999.0,73,0.00,,,0.00,Rainwise IP-100,2013-02-09 15:50:00,
2013-02-09 07:55:00,34.3,26.0,29.27,WSW,247,0.0,-999.0,72,0.00,,,0.00,Rainwise IP-100,2013-02-09 15:55:00,
2013-02-09 08:00:00,35.5,28.0,29.27,ESE,112,0.0,-999.0,70,0.00,,,0.00,Rainwise IP-100,2013-02-09 16:00:00,
2013-02-09 08:05:00,36.9,28.0,29.27,ENE,67,5.1,-999.0,67,0.00,,,0.00,Rainwise IP-100,2013-02-09 16:05:00,
2013-02-09 08:10:00,37.5,28.0,29.28,ESE,112,1.6,-999.0,65,0.00,,,0.00,Rainwise IP-100,2013-02-09 16:10:00,
2013-02-09 08:15:00,37.8,28.0,29.28,ENE,67,3.5,-999.0,64,0.00,,,0.00,Rainwise IP-100,2013-02-09 16:15:00,
2013-02-09 08:20:00,39.3,28.0,29.28,East,90,0.0,-999.0,62,0.00,,,0.00,Rainwise IP-100,2013-02-09 16:20:00,
2013-02-09 08:25:00,41.5,28.0,29.28,NNE,22,4.7,-999.0,57,0.00,,,0.00,Rainwise IP-100,2013-02-09 16:25:00,
2013-02-09 08:30:00,44.1,28.0,29.28,NNW,337,3.3,-999.0,51,0.00,,,0.00,Rainwise IP-100,2013-02-09 16:30:00,
2013-02-09 08:35:00,46.6,26.0,29.29,NNE,22,1.2,-999.0,44,0.00,,,0.00,Rainwise IP-100,2013-02-09 16:35:00,
2013-02-09 08:40:00,48.1,26.0,29.29,NNW,337,2.1,-999.0,41,0.00,,,0.00,Rainwise IP-100,2013-02-09 16:40:00,
2013-02-09 08:45:00,48.8,26.0,29.29,NNE,22,4.4,-999.0,40,0.00,,,0.00,Rainwise IP-100,2013-02-09 16:45:00,
2013-02-09 08:50:00,49.2,24.0,29.29,NNW,337,3.5,-999.0,38,0.00,,,0.00,Rainwise IP-100,2013-02-09 16:50:00,
2013-02-09 08:55:00,49.7,24.0,29.30,WSW,247,5.4,-999.0,37,0.00,,,0.00,Rainwise IP-100,2013-02-09 16:55:00,
2013-02-09 09:00:00,50.0,24.0,29.30,NNW,337,1.6,-999.0,36,0.00,,,0.00,Rainwise IP-100,2013-02-09 17:00:00,
2013-02-09 09:05:00,50.4,24.0,29.29,WNW,292,1.4,-999.0,36,0.00,,,0.00,Rainwise IP-100,2013-02-09 17:05:00,
2013-02-09 09:10:00,50.8,24.0,29.30,West,270,6.5,-999.0,35,0.00,,,0.00,Rainwise IP-100,2013-02-09 17:10:00,
2013-02-09 09:15:00,50.5,24.0,29.30,WNW,292,0.0,-999.0,35,0.00,,,0.00,Rainwise IP-100,2013-02-09 17:15:00,
2013-02-09 09:20:00,50.3,24.0,29.30,NNW,337,0.0,-999.0,35,0.00,,,0.00,Rainwise IP-100,2013-02-09 17:20:00,
2013-02-09 09:25:00,50.8,24.0,29.30,NNW,337,3.7,-999.0,35,0.00,,,0.00,Rainwise IP-100,2013-02-09 17:25:00,
2013-02-09 09:30:00,51.2,24.0,29.30,NNW,337,1.4,-999.0,34,0.00,,,0.00,Rainwise IP-100,2013-02-09 17:30:00,
2013-02-09 09:35:00,51.5,24.0,29.30,NNW,337,6.1,-999.0,33,0.00,,,0.00,Rainwise IP-100,2013-02-09 17:35:00,
2013-02-09 09:40:00,51.6,24.0,29.30,NNE,22,2.1,-999.0,33,0.00,,,0.00,Rainwise IP-100,2013-02-09 17:40:00,
2013-02-09 09:45:00,51.6,23.0,29.30,NNE,22,4.9,-999.0,32,0.00,,,0.00,Rainwise IP-100,2013-02-09 17:45:00,
2013-02-09 09:50:00,52.0,23.0,29.30,NNW,337,3.0,-999.0,32,0.00,,,0.00,Rainwise IP-100,2013-02-09 17:50:00,
2013-02-09 09:55:00,52.5,23.0,29.30,NNW,337,5.6,-999.0,31,0.00,,,0.00,Rainwise IP-100,2013-02-09 17:55:00,
2013-02-09 10:00:00,52.8,23.0,29.29,NNW,337,3.0,-999.0,31,0.00,,,0.00,Rainwise IP-100,2013-02-09 18:00:00,
2013-02-09 10:05:00,53.2,23.0,29.29,NNE,22,2.3,-999.0,31,0.00,,,0.00,Rainwise IP-100,2013-02-09 18:05:00,
2013-02-09 10:10:00,53.1,23.0,29.29,NNW,337,6.5,-999.0,30,0.00,,,0.00,Rainwise IP-100,2013-02-09 18:10:00,
2013-02-09 10:15:00,53.5,23.0,29.29,West,270,1.9,-999.0,29,0.00,,,0.00,Rainwise IP-100,2013-02-09 18:15:00,
2013-02-09 10:20:00,54.3,23.0,29.29,NNW,337,0.0,-999.0,29,0.00,,,0.00,Rainwise IP-100,2013-02-09 18:20:00,
2013-02-09 10:25:00,54.9,24.0,29.29,WNW,292,1.6,-999.0,29,0.00,,,0.00,Rainwise IP-100,2013-02-09 18:25:00,
2013-02-09 10:30:00,55.2,23.0,29.29,NNE,22,10.0,-999.0,28,0.00,,,0.00,Rainwise IP-100,2013-02-09 18:30:00,
2013-02-09 10:35:00,54.9,23.0,29.29,North,360,3.5,-999.0,27,0.00,,,0.00,Rainwise IP-100,2013-02-09 18:35:00,
2013-02-09 10:40:00,54.9,23.0,29.29,SSW,202,0.0,-999.0,27,0.00,,,0.00,Rainwise IP-100,2013-02-09 18:40:00,
2013-02-09 10:45:00,55.4,23.0,29.29,NNW,337,4.0,-999.0,27,0.00,,,0.00,Rainwise IP-100,2013-02-09 18:45:00,
2013-02-09 10:50:00,55.5,23.0,29.29,NNW,337,4.0,-999.0,27,0.00,,,0.00,Rainwise IP-100,2013-02-09 18:50:00,
2013-02-09 10:55:00,55.8,21.0,29.29,North,360,9.1,-999.0,25,0.00,,,0.00,Rainwise IP-100,2013-02-09 18:55:00,
2013-02-09 11:00:00,56.1,21.0,29.29,NNW,337,4.2,-999.0,25,0.00,,,0.00,Rainwise IP-100,2013-02-09 19:00:00,
2013-02-09 11:05:00,56.1,21.0,29.30,NNW,337,0.0,-999.0,24,0.00,,,0.00,Rainwise IP-100,2013-02-09 19:05:00,
2013-02-09 11:10:00,56.3,21.0,29.30,NW,315,0.0,-999.0,24,0.00,,,0.00,Rainwise IP-100,2013-02-09 19:10:00,
2013-02-09 11:15:00,56.7,23.0,29.30,NNW,337,4.2,-999.0,25,0.00,,,0.00,Rainwise IP-100,2013-02-09 19:15:00,
2013-02-09 11:20:00,56.9,23.0,29.29,North,360,3.3,-999.0,25,0.00,,,0.00,Rainwise IP-100,2013-02-09 19:20:00,
2013-02-09 11:25:00,56.7,21.0,29.30,North,360,2.6,-999.0,23,0.00,,,0.00,Rainwise IP-100,2013-02-09 19:25:00,
2013-02-09 11:30:00,56.6,21.0,29.30,NNE,22,4.7,-999.0,23,0.00,,,0.00,Rainwise IP-100,2013-02-09 19:30:00,
2013-02-09 11:35:00,56.3,21.0,29.30,NNE,22,4.0,-999.0,24,0.00,,,0.00,Rainwise IP-100,2013-02-09 19:35:00,
2013-02-09 11:40:00,55.7,18.0,29.29,NNE,22,5.4,-999.0,23,0.00,,,0.00,Rainwise IP-100,2013-02-09 19:40:00,
2013-02-09 11:45:00,55.7,18.0,29.29,North,360,3.0,-999.0,23,0.00,,,0.00,Rainwise IP-100,2013-02-09 19:45:00,
2013-02-09 11:50:00,56.3,21.0,29.29,NE,45,3.0,-999.0,23,0.00,,,0.00,Rainwise IP-100,2013-02-09 19:50:00,
2013-02-09 11:55:00,56.7,21.0,29.29,ENE,67,9.6,-999.0,23,0.00,,,0.00,Rainwise IP-100,2013-02-09 19:55:00,
2013-02-09 12:00:00,56.5,21.0,29.29,WNW,292,0.0,-999.0,23,0.00,,,0.00,Rainwise IP-100,2013-02-09 20:00:00,
2013-02-09 12:05:00,57.2,21.0,29.28,WNW,292,8.6,-999.0,23,0.00,,,0.00,Rainwise IP-100,2013-02-09 20:05:00,
2013-02-09 12:10:00,57.8,21.0,29.28,NNW,337,6.1,-999.0,23,0.00,,,0.00,Rainwise IP-100,2013-02-09 20:10:00,
2013-02-09 12:15:00,57.8,21.0,29.29,NNW,337,2.8,-999.0,23,0.00,,,0.00,Rainwise IP-100,2013-02-09 20:15:00,
2013-02-09 12:20:00,58.2,21.0,29.28,NNE,22,0.0,-999.0,22,0.00,,,0.00,Rainwise IP-100,2013-02-09 20:20:00,
2013-02-09 12:25:00,58.3,21.0,29.29,North,360,9.6,-999.0,22,0.00,,,0.00,Rainwise IP-100,2013-02-09 20:25:00,
2013-02-09 12:30:00,57.8,18.0,29.28,NE,45,4.2,-999.0,21,0.00,,,0.00,Rainwise IP-100,2013-02-09 20:30:00,
2013-02-09 12:35:00,57.2,18.0,29.28,NNE,22,6.1,-999.0,21,0.00,,,0.00,Rainwise IP-100,2013-02-09 20:35:00,
2013-02-09 12:40:00,57.6,21.0,29.28,NNW,337,4.4,-999.0,22,0.00,,,0.00,Rainwise IP-100,2013-02-09 20:40:00,
2013-02-09 12:45:00,58.1,18.0,29.27,NNW,337,0.0,-999.0,21,0.00,,,0.00,Rainwise IP-100,2013-02-09 20:45:00,
2013-02-09 12:50:00,58.5,21.0,29.28,NNE,22,1.2,-999.0,21,0.00,,,0.00,Rainwise IP-100,2013-02-09 20:50:00,
2013-02-09 12:55:00,59.0,23.0,29.27,NNW,337,2.6,-999.0,23,0.00,,,0.00,Rainwise IP-100,2013-02-09 20:55:00,
2013-02-09 13:00:00,59.3,23.0,29.27,North,360,3.5,-999.0,23,0.00,,,0.00,Rainwise IP-100,2013-02-09 21:00:00,
2013-02-09 13:05:00,59.5,21.0,29.28,North,360,3.7,-999.0,22,0.00,,,0.00,Rainwise IP-100,2013-02-09 21:05:00,
2013-02-09 13:10:00,59.2,21.0,29.27,North,360,2.1,-999.0,22,0.00,,,0.00,Rainwise IP-100,2013-02-09 21:10:00,
2013-02-09 13:15:00,58.6,21.0,29.27,NNW,337,2.8,-999.0,21,0.00,,,0.00,Rainwise IP-100,2013-02-09 21:15:00,
2013-02-09 13:20:00,58.4,18.0,29.27,ENE,67,3.5,-999.0,21,0.00,,,0.00,Rainwise IP-100,2013-02-09 21:20:00,
2013-02-09 13:25:00,58.8,21.0,29.27,NNE,22,2.6,-999.0,22,0.00,,,0.00,Rainwise IP-100,2013-02-09 21:25:00,
2013-02-09 13:30:00,59.5,21.0,29.28,NNW,337,0.0,-999.0,22,0.00,,,0.00,Rainwise IP-100,2013-02-09 21:30:00,
2013-02-09 13:35:00,59.7,21.0,29.27,NNE,22,3.3,-999.0,21,0.00,,,0.00,Rainwise IP-100,2013-02-09 21:35:00,
2013-02-09 13:40:00,59.6,21.0,29.27,NNW,337,0.0,-999.0,21,0.00,,,0.00,Rainwise IP-100,2013-02-09 21:40:00,
2013-02-09 13:45:00,60.0,21.0,29.27,West,270,1.6,-999.0,22,0.00,,,0.00,Rainwise IP-100,2013-02-09 21:45:00,
2013-02-09 13:50:00,60.6,23.0,29.27,NNE,22,4.0,-999.0,22,0.00,,,0.00,Rainwise IP-100,2013-02-09 21:50:00,
2013-02-09 13:55:00,60.8,21.0,29.27,West,270,4.2,-999.0,20,0.00,,,0.00,Rainwise IP-100,2013-02-09 21:55:00,
2013-02-09 14:00:00,60.8,21.0,29.27,West,270,1.6,-999.0,21,0.00,,,0.00,Rainwise IP-100,2013-02-09 22:00:00,
2013-02-09 14:05:00,61.0,21.0,29.26,WSW,247,3.5,-999.0,21,0.00,,,0.00,Rainwise IP-100,2013-02-09 22:05:00,
2013-02-09 14:10:00,61.1,21.0,29.27,NNW,337,2.8,-999.0,21,0.00,,,0.00,Rainwise IP-100,2013-02-09 22:10:00,
2013-02-09 14:15:00,61.1,21.0,29.26,North,360,2.6,-999.0,20,0.00,,,0.00,Rainwise IP-100,2013-02-09 22:15:00,
2013-02-09 14:20:00,61.2,18.0,29.26,North,360,2.1,-999.0,19,0.00,,,0.00,Rainwise IP-100,2013-02-09 22:20:00,
2013-02-09 14:25:00,61.1,18.0,29.26,NNW,337,3.5,-999.0,19,0.00,,,0.00,Rainwise IP-100,2013-02-09 22:25:00,
2013-02-09 14:30:00,60.8,18.0,29.26,NNE,22,2.6,-999.0,19,0.00,,,0.00,Rainwise IP-100,2013-02-09 22:30:00,
2013-02-09 14:35:00,59.9,18.0,29.26,ENE,67,3.0,-999.0,20,0.00,,,0.00,Rainwise IP-100,2013-02-09 22:35:00,
2013-02-09 14:40:00,59.3,18.0,29.26,NNE,22,6.5,-999.0,20,0.00,,,0.00,Rainwise IP-100,2013-02-09 22:40:00,
2013-02-09 14:45:00,59.3,18.0,29.26,NNE,22,6.8,-999.0,20,0.00,,,0.00,Rainwise IP-100,2013-02-09 22:45:00,
2013-02-09 14:50:00,59.1,21.0,29.27,ENE,67,4.9,-999.0,21,0.00,,,0.00,Rainwise IP-100,2013-02-09 22:50:00,
2013-02-09 14:55:00,59.1,18.0,29.27,NNE,22,6.5,-999.0,20,0.00,,,0.00,Rainwise IP-100,2013-02-09 22:55:00,
2013-02-09 15:00:00,59.2,21.0,29.27,NNE,22,2.1,-999.0,21,0.00,,,0.00,Rainwise IP-100,2013-02-09 23:00:00,
2013-02-09 15:05:00,59.2,21.0,29.26,NNE,22,0.0,-999.0,21,0.00,,,0.00,Rainwise IP-100,2013-02-09 23:05:00,
2013-02-09 15:10:00,59.7,21.0,29.26,NNE,22,3.0,-999.0,21,0.00,,,0.00,Rainwise IP-100,2013-02-09 23:10:00,
2013-02-09 15:15:00,59.7,18.0,29.26,NNE,22,2.6,-999.0,20,0.00,,,0.00,Rainwise IP-100,2013-02-09 23:15:00,
2013-02-09 15:20:00,59.1,21.0,29.26,NE,45,3.7,-999.0,21,0.00,,,0.00,Rainwise IP-100,2013-02-09 23:20:00,
2013-02-09 15:25:00,59.0,21.0,29.26,NNE,22,3.3,-999.0,21,0.00,,,0.00,Rainwise IP-100,2013-02-09 23:25:00,
2013-02-09 15:30:00,59.3,21.0,29.26,NNE,22,3.5,-999.0,21,0.00,,,0.00,Rainwise IP-100,2013-02-09 23:30:00,
2013-02-09 15:35:00,59.7,21.0,29.27,North,360,1.6,-999.0,21,0.00,,,0.00,Rainwise IP-100,2013-02-09 23:35:00,
2013-02-09 15:40:00,60.0,21.0,29.26,NW,315,1.9,-999.0,21,0.00,,,0.00,Rainwise IP-100,2013-02-09 23:40:00,
2013-02-09 15:45:00,60.6,23.0,29.26,West,270,4.0,-999.0,22,0.00,,,0.00,Rainwise IP-100,2013-02-09 23:45:00,
2013-02-09 15:50:00,61.1,23.0,29.27,North,360,6.1,-999.0,22,0.00,,,0.00,Rainwise IP-100,2013-02-09 23:50:00,
2013-02-09 15:55:00,61.0,21.0,29.27,NE,45,2.3,-999.0,21,0.00,,,0.00,Rainwise IP-100,2013-02-09 23:55:00,
2013-02-09 16:00:00,60.5,21.0,29.27,WSW,247,0.0,-999.0,21,0.00,,,0.00,Rainwise IP-100,2013-02-10 00:00:00,
2013-02-09 16:05:00,60.4,23.0,29.27,NNW,337,4.0,-999.0,22,0.00,,,0.00,Rainwise IP-100,2013-02-10 00:05:00,
2013-02-09 16:10:00,60.8,21.0,29.27,ENE,67,3.7,-999.0,21,0.00,,,0.00,Rainwise IP-100,2013-02-10 00:10:00,
2013-02-09 16:15:00,60.6,21.0,29.26,NNE,22,4.0,-999.0,21,0.00,,,0.00,Rainwise IP-100,2013-02-10 00:15:00,
2013-02-09 16:20:00,60.6,21.0,29.26,NNE,22,1.4,-999.0,21,0.00,,,0.00,Rainwise IP-100,2013-02-10 00:20:00,
2013-02-09 16:25:00,61.3,23.0,29.26,NNE,22,3.5,-999.0,22,0.00,,,0.00,Rainwise IP-100,2013-02-10 00:25:00,
2013-02-09 16:30:00,61.2,23.0,29.26,NNE,22,0.0,-999.0,22,0.00,,,0.00,Rainwise IP-100,2013-02-10 00:30:00,
2013-02-09 16:35:00,60.8,21.0,29.26,NNW,337,2.1,-999.0,21,0.00,,,0.00,Rainwise IP-100,2013-02-10 00:35:00,
2013-02-09 16:40:00,60.6,21.0,29.25,NNE,22,1.9,-999.0,21,0.00,,,0.00,Rainwise IP-100,2013-02-10 00:40:00,
2013-02-09 16:45:00,60.3,21.0,29.26,NNW,337,2.8,-999.0,21,0.00,,,0.00,Rainwise IP-100,2013-02-10 00:45:00,
2013-02-09 16:50:00,59.8,21.0,29.26,NNW,337,2.3,-999.0,21,0.00,,,0.00,Rainwise IP-100,2013-02-10 00:50:00,
2013-02-09 16:55:00,59.1,21.0,29.26,North,360,0.0,-999.0,22,0.00,,,0.00,Rainwise IP-100,2013-02-10 00:55:00,
2013-02-09 17:00:00,58.4,21.0,29.26,NNE,22,2.6,-999.0,23,0.00,,,0.00,Rainwise IP-100,2013-02-10 01:00:00,
2013-02-09 17:05:00,57.7,21.0,29.26,North,360,3.7,-999.0,23,0.00,,,0.00,Rainwise IP-100,2013-02-10 01:05:00,
2013-02-09 17:10:00,56.8,23.0,29.27,North,360,0.0,-999.0,25,0.00,,,0.00,Rainwise IP-100,2013-02-10 01:10:00,
2013-02-09 17:15:00,56.0,23.0,29.26,North,360,1.9,-999.0,26,0.00,,,0.00,Rainwise IP-100,2013-02-10 01:15:00,
2013-02-09 17:20:00,55.1,21.0,29.27,North,360,1.6,-999.0,26,0.00,,,0.00,Rainwise IP-100,2013-02-10 01:20:00,
2013-02-09 17:25:00,54.4,23.0,29.27,NW,315,0.0,-999.0,27,0.00,,,0.00,Rainwise IP-100,2013-02-10 01:25:00,
2013-02-09 17:30:00,53.8,23.0,29.28,NW,315,0.0,-999.0,29,0.00,,,0.00,Rainwise IP-100,2013-02-10 01:30:00,
2013-02-09 17:35:00,52.8,23.0,29.27,WNW,292,2.6,-999.0,30,0.00,,,0.00,Rainwise IP-100,2013-02-10 01:35:00,
2013-02-09 17:40:00,51.8,23.0,29.27,WNW,292,1.2,-999.0,31,0.00,,,0.00,Rainwise IP-100,2013-02-10 01:40:00,
2013-02-09 17:45:00,50.7,24.0,29.27,WNW,292,0.0,-999.0,34,0.00,,,0.00,Rainwise IP-100,2013-02-10 01:45:00,
2013-02-09 17:50:00,49.9,24.0,29.27,WNW,292,1.2,-999.0,35,0.00,,,0.00,Rainwise IP-100,2013-02-10 01:50:00,
2013-02-09 17:55:00,49.1,24.0,29.27,WNW,292,0.0,-999.0,36,0.00,,,0.00,Rainwise IP-100,2013-02-10 01:55:00,
2013-02-09 18:00:00,48.2,24.0,29.28,WNW,292,1.4,-999.0,38,0.00,,,0.00,Rainwise IP-100,2013-02-10 02:00:00,
2013-02-09 18:05:00,47.2,24.0,29.28,WNW,292,1.4,-999.0,41,0.00,,,0.00,Rainwise IP-100,2013-02-10 02:05:00,
2013-02-09 18:10:00,46.2,26.0,29.28,WNW,292,0.0,-999.0,44,0.00,,,0.00,Rainwise IP-100,2013-02-10 02:10:00,
2013-02-09 18:15:00,45.3,26.0,29.28,WNW,292,1.6,-999.0,45,0.00,,,0.00,Rainwise IP-100,2013-02-10 02:15:00,
2013-02-09 18:20:00,44.8,26.0,29.29,WNW,292,1.9,-999.0,47,0.00,,,0.00,Rainwise IP-100,2013-02-10 02:20:00,
2013-02-09 18:25:00,44.0,28.0,29.28,WNW,292,0.0,-999.0,51,0.00,,,0.00,Rainwise IP-100,2013-02-10 02:25:00,
2013-02-09 18:30:00,43.1,28.0,29.28,WNW,292,2.1,-999.0,53,0.00,,,0.00,Rainwise IP-100,2013-02-10 02:30:00,
2013-02-09 18:35:00,42.5,28.0,29.29,WNW,292,0.0,-999.0,54,0.00,,,0.00,Rainwise IP-100,2013-02-10 02:35:00,
2013-02-09 18:40:00,42.2,28.0,29.28,WSW,247,3.3,-999.0,55,0.00,,,0.00,Rainwise IP-100,2013-02-10 02:40:00,
2013-02-09 18:45:00,41.7,28.0,29.29,WSW,247,1.9,-999.0,56,0.00,,,0.00,Rainwise IP-100,2013-02-10 02:45:00,
2013-02-09 18:50:00,41.3,28.0,29.29,WSW,247,0.0,-999.0,57,0.00,,,0.00,Rainwise IP-100,2013-02-10 02:50:00,
2013-02-09 18:55:00,41.0,28.0,29.29,WSW,247,1.2,-999.0,58,0.00,,,0.00,Rainwise IP-100,2013-02-10 02:55:00,
2013-02-09 19:00:00,40.7,28.0,29.29,WSW,247,0.0,-999.0,58,0.00,,,0.00,Rainwise IP-100,2013-02-10 03:00:00,
2013-02-09 19:05:00,40.6,28.0,29.29,WSW,247,1.2,-999.0,58,0.00,,,0.00,Rainwise IP-100,2013-02-10 03:05:00,
2013-02-09 19:10:00,40.5,28.0,29.30,WSW,247,0.0,-999.0,58,0.00,,,0.00,Rainwise IP-100,2013-02-10 03:10:00,
2013-02-09 19:15:00,40.2,28.0,29.29,WSW,247,0.0,-999.0,59,0.00,,,0.00,Rainwise IP-100,2013-02-10 03:15:00,
2013-02-09 19:20:00,39.8,28.0,29.30,WSW,247,0.0,-999.0,61,0.00,,,0.00,Rainwise IP-100,2013-02-10 03:20:00,
2013-02-09 19:25:00,39.3,28.0,29.30,WSW,247,0.0,-999.0,63,0.00,,,0.00,Rainwise IP-100,2013-02-10 03:25:00,
2013-02-09 19:30:00,39.0,28.0,29.31,WSW,247,0.0,-999.0,63,0.00,,,0.00,Rainwise IP-100,2013-02-10 03:30:00,
2013-02-09 19:35:00,38.6,28.0,29.30,WSW,247,2.1,-999.0,64,0.00,,,0.00,Rainwise IP-100,2013-02-10 03:35:00,
2013-02-09 19:40:00,38.1,28.0,29.30,WSW,247,0.0,-999.0,66,0.00,,,0.00,Rainwise IP-100,2013-02-10 03:40:00,
2013-02-09 19:45:00,37.8,28.0,29.30,WSW,247,0.0,-999.0,66,0.00,,,0.00,Rainwise IP-100,2013-02-10 03:45:00,
2013-02-09 19:50:00,37.7,28.0,29.31,WSW,247,0.0,-999.0,67,0.00,,,0.00,Rainwise IP-100,2013-02-10 03:50:00,
2013-02-09 19:55:00,37.5,29.0,29.30,WSW,247,0.0,-999.0,68,0.00,,,0.00,Rainwise IP-100,2013-02-10 03:55:00,
2013-02-09 20:00:00,37.2,28.0,29.30,WSW,247,1.9,-999.0,69,0.00,,,0.00,Rainwise IP-100,2013-02-10 04:00:00,
2013-02-09 20:05:00,36.8,28.0,29.30,WSW,247,2.1,-999.0,69,0.00,,,0.00,Rainwise IP-100,2013-02-10 04:05:00,
2013-02-09 20:10:00,36.6,28.0,29.31,WSW,247,1.4,-999.0,70,0.00,,,0.00,Rainwise IP-100,2013-02-10 04:10:00,
2013-02-09 20:15:00,36.7,28.0,29.31,WSW,247,1.4,-999.0,70,0.00,,,0.00,Rainwise IP-100,2013-02-10 04:15:00,
2013-02-09 20:20:00,36.9,28.0,29.31,WSW,247,1.9,-999.0,70,0.00,,,0.00,Rainwise IP-100,2013-02-10 04:20:00,
2013-02-09 20:25:00,36.8,28.0,29.31,WSW,247,0.0,-999.0,70,0.00,,,0.00,Rainwise IP-100,2013-02-10 04:25:00,
2013-02-09 20:30:00,36.5,29.0,29.31,WSW,247,0.0,-999.0,71,0.00,,,0.00,Rainwise IP-100,2013-02-10 04:30:00,
2013-02-09 20:35:00,36.2,28.0,29.31,WSW,247,1.6,-999.0,72,0.00,,,0.00,Rainwise IP-100,2013-02-10 04:35:00,
2013-02-09 20:40:00,35.8,28.0,29.31,WSW,247,0.0,-999.0,72,0.00,,,0.00,Rainwise IP-100,2013-02-10 04:40:00,
2013-02-09 20:45:00,35.6,28.0,29.31,WSW,247,0.0,-999.0,72,0.00,,,0.00,Rainwise IP-100,2013-02-10 04:45:00,
2013-02-09 20:50:00,35.7,28.0,29.31,WSW,247,0.0,-999.0,71,0.00,,,0.00,Rainwise IP-100,2013-02-10 04:50:00,
2013-02-09 20:55:00,35.5,28.0,29.31,WSW,247,2.3,-999.0,71,0.00,,,0.00,Rainwise IP-100,2013-02-10 04:55:00,
2013-02-09 21:00:00,35.2,26.0,29.31,WSW,247,0.0,-999.0,72,0.00,,,0.00,Rainwise IP-100,2013-02-10 05:00:00,
2013-02-09 21:05:00,35.0,28.0,29.31,WSW,247,2.1,-999.0,73,0.00,,,0.00,Rainwise IP-100,2013-02-10 05:05:00,
2013-02-09 21:10:00,35.0,28.0,29.31,WSW,247,0.0,-999.0,74,0.00,,,0.00,Rainwise IP-100,2013-02-10 05:10:00,
2013-02-09 21:15:00,34.9,28.0,29.31,WSW,247,0.0,-999.0,75,0.00,,,0.00,Rainwise IP-100,2013-02-10 05:15:00,
2013-02-09 21:20:00,34.7,28.0,29.31,WSW,247,0.0,-999.0,76,0.00,,,0.00,Rainwise IP-100,2013-02-10 05:20:00,
2013-02-09 21:25:00,34.4,28.0,29.31,WSW,247,1.2,-999.0,77,0.00,,,0.00,Rainwise IP-100,2013-02-10 05:25:00,
2013-02-09 21:30:00,34.3,28.0,29.31,WSW,247,1.2,-999.0,76,0.00,,,0.00,Rainwise IP-100,2013-02-10 05:30:00,
2013-02-09 21:32:00,34.2,28.0,29.31,WSW,247,2.1,-999.0,76,0.00,,,0.00,Rainwise IP-100,2013-02-10 05:32:00,
2013-02-09 21:37:00,34.0,28.0,29.31,WSW,247,0.0,-999.0,76,0.00,,,0.00,Rainwise IP-100,2013-02-10 05:37:00,
2013-02-09 21:42:00,33.9,28.0,29.31,WSW,247,0.0,-999.0,77,0.00,,,0.00,Rainwise IP-100,2013-02-10 05:42:00,
2013-02-09 21:47:00,33.9,28.0,29.31,WSW,247,3.0,-999.0,77,0.00,,,0.00,Rainwise IP-100,2013-02-10 05:47:00,
2013-02-09 21:52:00,33.7,29.0,29.31,WSW,247,2.6,-999.0,78,0.00,,,0.00,Rainwise IP-100,2013-02-10 05:52:00,
2013-02-09 21:57:00,33.7,29.0,29.31,WSW,247,1.4,-999.0,78,0.00,,,0.00,Rainwise IP-100,2013-02-10 05:57:00,
2013-02-09 22:02:00,33.8,29.0,29.31,WSW,247,2.3,-999.0,78,0.00,,,0.00,Rainwise IP-100,2013-02-10 06:02:00,
2013-02-09 22:07:00,33.8,29.0,29.31,WSW,247,1.4,-999.0,78,0.00,,,0.00,Rainwise IP-100,2013-02-10 06:07:00,
2013-02-09 22:08:00,33.8,29.0,29.31,WSW,247,1.4,-999.0,78,0.00,,,0.00,Rainwise IP-100,2013-02-10 06:08:00,
2013-02-09 22:13:00,34.0,29.0,29.31,WSW,247,0.0,-999.0,78,0.00,,,0.00,Rainwise IP-100,2013-02-10 06:13:00,
2013-02-09 22:18:00,34.0,29.0,29.31,WSW,247,0.0,-999.0,78,0.00,,,0.00,Rainwise IP-100,2013-02-10 06:18:00,
2013-02-09 22:23:00,33.5,29.0,29.31,WSW,247,0.0,-999.0,78,0.00,,,0.00,Rainwise IP-100,2013-02-10 06:23:00,
2013-02-09 22:28:00,32.9,28.0,29.31,WSW,247,2.3,-999.0,79,0.00,,,0.00,Rainwise IP-100,2013-02-10 06:28:00,
2013-02-09 22:33:00,33.0,28.0,29.31,WSW,247,0.0,-999.0,80,0.00,,,0.00,Rainwise IP-100,2013-02-10 06:33:00,
2013-02-09 22:38:00,33.6,29.0,29.31,WSW,247,0.0,-999.0,80,0.00,,,0.00,Rainwise IP-100,2013-02-10 06:38:00,
2013-02-09 22:43:00,33.6,29.0,29.31,WSW,247,0.0,-999.0,80,0.00,,,0.00,Rainwise IP-100,2013-02-10 06:43:00,
2013-02-09 22:48:00,33.2,28.0,29.31,WSW,247,0.0,-999.0,80,0.00,,,0.00,Rainwise IP-100,2013-02-10 06:48:00,
2013-02-09 22:53:00,32.9,28.0,29.31,WSW,247,1.4,-999.0,80,0.00,,,0.00,Rainwise IP-100,2013-02-10 06:53:00,
2013-02-09 22:57:00,32.6,28.0,29.31,WSW,247,3.0,-999.0,80,0.00,,,0.00,Rainwise IP-100,2013-02-10 06:57:00,
2013-02-09 23:02:00,32.5,28.0,29.32,WSW,247,2.1,-999.0,80,0.00,,,0.00,Rainwise IP-100,2013-02-10 07:02:00,
2013-02-09 23:07:00,33.0,28.0,29.32,WSW,247,0.0,-999.0,81,0.00,,,0.00,Rainwise IP-100,2013-02-10 07:07:00,
2013-02-09 23:12:00,33.3,28.0,29.32,WSW,247,0.0,-999.0,80,0.00,,,0.00,Rainwise IP-100,2013-02-10 07:12:00,
2013-02-09 23:17:00,32.9,28.0,29.33,WSW,247,1.2,-999.0,80,0.00,,,0.00,Rainwise IP-100,2013-02-10 07:17:00,
2013-02-09 23:22:00,32.5,28.0,29.33,WSW,247,1.9,-999.0,81,0.00,,,0.00,Rainwise IP-100,2013-02-10 07:22:00,
2013-02-09 23:27:00,32.1,28.0,29.33,WSW,247,0.0,-999.0,81,0.00,,,0.00,Rainwise IP-100,2013-02-10 07:27:00,
2013-02-09 23:32:00,32.0,28.0,29.33,WSW,247,1.4,-999.0,81,0.00,,,0.00,Rainwise IP-100,2013-02-10 07:32:00,
2013-02-09 23:37:00,32.1,28.0,29.33,WSW,247,0.0,-999.0,82,0.00,,,0.00,Rainwise IP-100,2013-02-10 07:37:00,
2013-02-09 23:42:00,32.1,28.0,29.33,WSW,247,1.4,-999.0,82,0.00,,,0.00,Rainwise IP-100,2013-02-10 07:42:00,
2013-02-09 23:47:00,32.0,28.0,29.33,WSW,247,0.0,-999.0,83,0.00,,,0.00,Rainwise IP-100,2013-02-10 07:47:00,
2013-02-09 23:52:00,31.8,28.0,29.33,WSW,247,0.0,-999.0,83,0.00,,,0.00,Rainwise IP-100,2013-02-10 07:52:00,
2013-02-09 23:57:00,31.4,26.0,29.33,WSW,247,0.0,-999.0,83,0.00,,,0.00,Rainwise IP-100,2013-02-10 07:57:00,